Regional Weather Roundup
Issued by NWS Wakefield, VA

Home | Current Version | Previous Version | Graphics & Text | Print | Product List | Glossary On
Versions: 1 2 3 4 5 6 7 8 9 10 11 12 13 14 15 16 17 18 19 20 21 22 23 24 25 26 27 28 29 30 31 32 33 34 35 36 37 38 39 40 41 42 43 44 45 46 47 48 49 50
944
ASUS41 KAKQ 250115
RWRAKQ

REGIONAL WEATHER ROUNDUP
NATIONAL WEATHER SERVICE WAKEFIELD VA
900 PM EDT THU MAY 24 2018

Note: "fair" indicates few or no clouds below 12,000 feet with no
significant weather and/or obstructions to visibility. * = Denotes
station may not report precipitation (e.g., rain,snow,etc.),
thunder or fog.

VAZ042-051-052>054-056-250200-
NORTHERN VIRGINIA

CITY           SKY/WX    TMP DP  RH WIND       PRES   REMARKS
WASH NATIONAL  FAIR      74  56  53 S5        30.13R
DULLES         FAIR      69  55  60 S3        30.13R
FORT BELVOIR   FAIR      67  60  79 CALM      30.13R
QUANTICO       FAIR      72  63  73 W5        30.14R
FREDERICKSBRG* FAIR      70  59  69 CALM      30.14R
STAFFORD*      FAIR      65  63  94 CALM      30.18R
WARRENTON      FAIR      64  56  77 CALM      30.14R
CULPEPER*      FAIR      64  59  82 CALM      30.15R
MANASSAS*      FAIR      67  59  75 CALM      30.14R
LEESBURG*      FAIR      72  57  60 CALM      30.14R
WINCHESTER     FAIR      63  52  67 CALM      30.16S
FRONT ROYAL*   FAIR      68  52  56 CALM      30.14R
LURAY*         FAIR      66  55  68 CALM      30.16R
$$

VAZ048-049-060>072-079>083-250200-
CENTRAL AND SOUTH CENTRAL VIRGINIA

CITY           SKY/WX    TMP DP  RH WIND       PRES   REMARKS
RICHMOND       FAIR      74  59  59 CALM      30.15R
CHESTERFIELD*  FAIR      70  60  70 CALM      30.15R
PETERSBURG*    FAIR      64  62  90 CALM      30.16R
HANOVER        FAIR      68  62  81 CALM      30.16R
TAPPAHANNOCK*  FAIR      66  62  86 CALM      30.16R
QUINTON*       FAIR      71  63  74 E12       30.15R
CHARLOTTSVILLE FAIR      74  55  51 SE3       30.15R
GORDONSVILLE*  FAIR      66  58  74 CALM      30.15R
ORANGE*        FAIR      64  61  88 CALM      30.15R
LOUISA*        FAIR      60  57  92 CALM      30.20R
BUMPASS*       FAIR      66  61  84 CALM      30.15R
FARMVILLE*     FAIR      67  67 100 CALM      30.15R
CREWE*         FAIR      65  65 100 CALM      30.16R
FORT PICKETT*  FAIR      71  58  64 CALM      30.16R
CHASE CITY*    FAIR      69  62  78 CALM      30.16R
CLARKSVILLE*   FAIR      70  64  83 CALM      30.16R
SOUTH HILL*    FAIR      68  66  92 CALM      30.21R
LAWRENCEVILLE* FAIR      70  63  77 CALM      30.15R
EMPORIA*       FAIR      70  63  78 E7        30.17R
$$

VAZ088>098-250200-
SOUTHEAST VIRGINIA

CITY           SKY/WX    TMP DP  RH WIND       PRES   REMARKS
NORFOLK        FAIR      71  62  73 CALM      30.15R
VIRGINIA BEACH FAIR      67  62  84 E3        30.15R
NORFOLK NAVAL  FAIR      70  60  70 SE6       30.17R
WEST POINT*    FAIR      68  60  75 E3        30.17R
SALUDA*        FAIR      69  63  79 S3        30.16R
NEWPORT NEWS   FAIR      68  60  75 E5        30.16R
LANGLEY AFB    FAIR      69  63  81 SE5       30.16R
FORT EUSTIS    FAIR      72  61  67 E3        30.13R
WILLIAMSBURG*  FAIR      72  61  68 CALM      30.16R
HR EXEC AP*    FAIR      65  61  87 CALM      30.16
FRANKLIN*      FAIR      72  60  65 CALM      30.16R
US460-WAKEFLD  FAIR      71  61  70 E3        30.15R
$$

VAZ020-022-025-037-045-250200-
WEST CENTRAL AND SOUTHWEST VIRGINIA

CITY           SKY/WX    TMP DP  RH WIND       PRES   REMARKS
STAUNTON*      FAIR      70  55  59 CALM      30.20R
WAYNESBORO*    FAIR      70  54  55 S3        30.19R
HOT SPRINGS VA FAIR      63  51  64 S8        30.28S
LYNCHBURG      FAIR      66  58  75 CALM      30.18R
DANVILLE       FAIR      68  63  84 CALM      30.16R
SOUTH BOSTON*  FAIR      69  61  77 CALM      30.16R
MARTINSVILLE   FAIR      66  62  87 CALM      30.19S
ROANOKE        FAIR      74  58  57 SE5       30.19S
BLACKSBURG     MOCLDY    71  59  65 SE6       30.24S
DUBLIN*        FAIR      71  60  69 SE3       30.23R
MARION*        FAIR      70  63  78 NE6       30.24R
HILLSVILLE*    FAIR      66  61  82 CALM      30.23R
RICHLANDS*     CLOUDY    72  35  26 SE7       30.19R
WISE*          CLOUDY    73  63  68 S6        30.18S
ABINGDON*      FAIR      74  63  66 SE5       30.16S
$$

MDZ021>025-VAZ099-100-250200-
SOUTHERN MARYLAND AND THE DELMARVA PENINSULA

CITY           SKY/WX    TMP DP  RH WIND       PRES   REMARKS
PATUXENT RIVER FAIR      73  58  59 S5        30.13R
BAY BRIDGE APT FAIR      73  52  46 CALM      30.12S
LEONARDTOWN    FAIR      64  54  68 CALM      30.16R
DOVER          FAIR      67  56  69 SE5       30.13R
GEORGETOWN     FAIR      67  55  65 S7        30.15R
EASTON         CLEAR     72  55  56 CALM      30.16S
CAMBRIDGE        N/A     68  57  68 CALM      30.14R
SALISBURY      FAIR      66  58  75 S5        30.15R
TANGIER        FAIR      70  63  78 SE7       30.15R
OCEAN CITY     FAIR      65  58  78 CALM      30.16R
WALLOPS ISLAND FAIR      65  60  84 S6        30.17R
ACCOMACK*      FAIR      64  60  86 SE3       30.16R
$$

NCZ012>017-030>032-250200-
NORTH CENTRAL AND EASTERN NORTH CAROLINA

CITY           SKY/WX    TMP DP  RH WIND       PRES   REMARKS
ROANOKE RAPIDS FAIR      70  63  78 CALM      30.16R
RALEIGH        FAIR      75  60  59 E3        30.15R
ELIZABETH CITY FAIR      71  63  75 SE3       30.16R
AHOSKIE*       FAIR      70  60  70 CALM      30.17R
EDENTON*       FAIR      69  61  75 CALM      30.17R
CURRITUCK*     NOT AVBL
KILL DEVIL HLS FAIR      67  65  94 CALM      30.16R
MANTEO         FAIR      67  63  86 CALM      30.17S
CAPE HATTERAS  FAIR      69  61  75 NE5       30.16R
TARBORO*       NOT AVBL
GOLDSBORO      FAIR      75  65  70 SE3       30.14R
WASHINGTON     FAIR      72  60  67 CALM      30.16R
GREENVILLE     FAIR      75  63  64 SE5       30.17R
NEW BERN       FAIR      71  62  73 E5        30.16R
WILMINGTON     CLOUDY    73  67  81 E5        30.14R
$$

VAZ048-250200-
ELSEWHERE

CITY           SKY/WX    TMP DP  RH WIND       PRES   REMARKS
HARRISBURG PA  FAIR      69  52  54 CALM      30.09S
BALTIMORE      FAIR      72  50  45 S3        30.12R
ANNAPOLIS      FAIR      73  54  51 CALM      30.12S
ANDREWS AFB    FAIR      70  52  52 CALM      30.13R
PHILADELPHIA   FAIR      72  48  42 S10       30.11R
HENDERSON NC   FAIR      66  58  76 CALM      30.16S
GREENSBORO     FAIR      73  61  65 E6        30.15R
ROCKY MOUNT    FAIR      71  61  70 CALM      30.15R
$$

VAZ100-250200-
MARINE

STATION/POSITION TIME  TEMP    WIND        PRES    WAVE   SWELL
                       AIR SEA DIR/SP/G            HT/PER HT/PER
                 (UTC) (F)     (DEG/KT/KT) (MB)    (FT/S) (FT/S)
BRANDYWINE LGT   0048   66     180/ 12/ 13 1020.9S
CAPE MAY NJ      0048   64 67  170/  6/  8 1020.3R
LEWES DE         0036   68 69  170/  6/  8 1020.5R
15NM E FENWICK I 0050   62 62  180/  6/  8 1021.5R   2/ 8   2/ 8
OCEAN-CITY-INLET 0036   66 67  200/  5/  7 1021.5R
WACHAPREAGUE VA  0048   67 79   70/  4/  6 1021.4R
THOMAS POINT MD  0100   73 69  200/  5/  5 1021.0R
GOOSES REEF MD   0100   74     220/  4/  6 1020.2    0
COVE POINT MD    0048   75     270/  2/  3 1020.9R
SOLOMONS ISLAND  0048   72 74  100/  2/  5 1020.3R
BISHOPS HEAD MD  0048   74 80  160/ 15/ 17 1021.2R
PINEY POINT MD   0048          190/  9/ 10   N/A
POTOMAC MD       0100   73 73  190/ 10/ 12 1020.2
CAMBRIDGE MD     0048   73 77              1021.4R
LEWISETTA VA     0048   72 77  180/  8/  9 1020.8R
RAPPAHANNOCK LGT 0048          130/ 10/ 10 1022.0R
STINGRAY PT      0100   72 74  190/ 10/ 12 1021.0    1
YORK RVR RNG VA  0048   71     140/ 10/ 11 1021.7R
YORKTOWN VA      0048   72 76  110/  5/  7 1020.7R
DOMINION TERM VA 0048   76     150/  7/  8 1021.3R
KIPTOPEKE VA     0042      72  140/  7/  8   N/A
CAPE HENRY VA    0048   69     130/  7/  9   N/A
WILLOUBY STN VA  0048          150/  8/  8   N/A
S CRANEY ISL VA  0048   75     160/  7/  9 1020.8R
CAPE HENRY BUOY  0100      71                N/A     1/ 9
1ST LANDING BUOY 0100   70 72  140/ 10/ 12 1021.1    1
64NM E OF VA BCH 0050   65 68   70/  4/  6 1021.9R   2/ 8   2/ 8
DUCK PIER NC     0048   70 72  110/  5/  6 1021.1R
44100 DUCK FRF   0045      73                N/A     2/ 8
44056 DUCK FRF   0100      72                N/A     1/ 8
OREGON INLET NC  0042   69 78   40/  5/  6 1021.2R
HATTERAS NC      0048   72 77   80/  4/  5 1020.8R
DIAMOND SHLS NC  0050   75 78   30/ 10/ 12 1021.0R   2/ 9   2/ 9
CAPE LOOKOUT NC  0000           60/ 11/ 12 1020.6R
$$




USA.gov is the U.S. government's official web portal to all federal, state and local government web resources and services.